When you browse on this site, cookies collect data to enhance your experience and personalize the content and advertising you see.
Visit our Privacy Policy to learn more. By continuing to use the site, you agree to this use of cookies and data.
  • In Österreich
  • Länderverzeichnis
  • Für 7 Tage
  • Wassertemperatur
  • Wetterkarte
  • News
  • Widgets
  • user-avatar
    Anmelden

    Stündliche Wetter Hlushka

    Heute, 23 Oktober, Mittwoch

    Zeit Temperatur Niederschläge Wind Luftdruck Luftfeuchtigkeit
    00:00 +15°C° 0 mm 1 m/S 740 mmHg 83%
    01:00 +15°C° 0 mm 1 m/S 740 mmHg 85%
    02:00 +13°C° 0 mm 0 m/S 740 mmHg 89%
    03:00 +13°C° 0 mm 0 m/S 740 mmHg 90%
    04:00 +13°C° 0 mm 0 m/S 740 mmHg 90%
    05:00 +12°C° 0 mm 0 m/S 740 mmHg 91%
    06:00 +12°C° 0 mm 0 m/S 740 mmHg 93%
    07:00 +12°C° 0 mm 0 m/S 740 mmHg 95%
    08:00 +12°C° 0 mm 0 m/S 740 mmHg 95%
    09:00 +14°C° 0 mm 1 m/S 740 mmHg 96%
    10:00 +14°C° 0 mm 0 m/S 740 mmHg 96%
    11:00 +16°C° 0 mm 0 m/S 740 mmHg 89%
    12:00 +17°C° 0 mm 0 m/S 741 mmHg 89%
    13:00 +18°C° 0 mm 0 m/S 740 mmHg 86%
    14:00 +21°C° 0 mm 1 m/S 740 mmHg 82%
    15:00 +21°C° 0 mm 1 m/S 740 mmHg 80%
    16:00 +21°C° 0 mm 1 m/S 740 mmHg 82%
    17:00 +18°C° 0 mm 0 m/S 740 mmHg 82%
    18:00 +20°C° 0 mm 1 m/S 740 mmHg 83%
    19:00 +19°C° 0 mm 1 m/S 740 mmHg 90%
    20:00 +18°C° 0 mm 1 m/S 740 mmHg 92%
    21:00 +16°C° 0 mm 0 m/S 740 mmHg 91%
    22:00 +15°C° 0 mm 0 m/S 740 mmHg 90%
    23:00 +16°C° 0 mm 1 m/S 740 mmHg 90%

    Morgen, 24 Oktober, Donnerstag

    Zeit Temperatur Niederschläge Wind Luftdruck Luftfeuchtigkeit
    00:00 +16°C° 0 mm 1 m/S 740 mmHg 88%
    01:00 +15°C° 0 mm 1 m/S 739 mmHg 89%
    02:00 +15°C° 0 mm 1 m/S 739 mmHg 91%
    03:00 +15°C° 0 mm 1 m/S 739 mmHg 92%
    04:00 +14°C° 0 mm 1 m/S 739 mmHg 93%
    05:00 +14°C° 0 mm 1 m/S 739 mmHg 93%
    06:00 +14°C° 0 mm 2 m/S 739 mmHg 94%
    07:00 +13°C° 0 mm 2 m/S 738 mmHg 96%
    08:00 +12°C° 0 mm 2 m/S 738 mmHg 99%
    09:00 +13°C° 0 mm 2 m/S 738 mmHg 100%
    10:00 +14°C° 0 mm 2 m/S 739 mmHg 100%
    11:00 +13°C° 0 mm 3 m/S 739 mmHg 100%
    12:00 +14°C° 0 mm 3 m/S 739 mmHg 100%
    13:00 +14°C° 0 mm 3 m/S 739 mmHg 100%
    14:00 +14°C° 0 mm 3 m/S 738 mmHg 100%
    15:00 +14°C° 0 mm 3 m/S 738 mmHg 100%
    16:00 +13°C° 0 mm 3 m/S 738 mmHg 100%
    17:00 +13°C° 0 mm 3 m/S 738 mmHg 100%
    18:00 +12°C° 0 mm 3 m/S 738 mmHg 100%
    19:00 +12°C° 0 mm 3 m/S 738 mmHg 100%
    20:00 +12°C° 0 mm 3 m/S 738 mmHg 100%
    21:00 +12°C° 0 mm 3 m/S 738 mmHg 100%
    22:00 +12°C° 0 mm 3 m/S 738 mmHg 100%
    23:00 +12°C° 0 mm 3 m/S 738 mmHg 100%

    übermorgen, 25 Oktober, Freitag

    Zeit Temperatur Niederschläge Wind Luftdruck Luftfeuchtigkeit
    00:00 +12°C° 0 mm 3 m/S 738 mmHg 100%
    01:00 +12°C° 0 mm 3 m/S 738 mmHg 100%
    02:00 +12°C° 0 mm 3 m/S 738 mmHg 100%
    03:00 +12°C° 0 mm 3 m/S 737 mmHg 100%
    04:00 +12°C° 0 mm 3 m/S 737 mmHg 100%
    05:00 +12°C° 0 mm 3 m/S 737 mmHg 100%
    06:00 +13°C° 0 mm 2 m/S 737 mmHg 100%
    07:00 +13°C° 0 mm 2 m/S 738 mmHg 100%
    08:00 +13°C° 0 mm 2 m/S 738 mmHg 100%
    09:00 +13°C° 0 mm 2 m/S 738 mmHg 100%
    10:00 +13°C° 0 mm 2 m/S 738 mmHg 100%
    11:00 +13°C° 0 mm 1 m/S 738 mmHg 100%
    12:00 +13°C° 0 mm 1 m/S 739 mmHg 100%
    13:00 +13°C° 0 mm 1 m/S 739 mmHg 100%
    14:00 +13°C° 0 mm 1 m/S 739 mmHg 100%
    15:00 +13°C° 0 mm 1 m/S 739 mmHg 100%
    16:00 +12°C° 0 mm 1 m/S 738 mmHg 100%
    17:00 +12°C° 0 mm 1 m/S 739 mmHg 100%
    18:00 +11°C° 0 mm 1 m/S 739 mmHg 100%
    19:00 +11°C° 0 mm 1 m/S 739 mmHg 100%
    20:00 +11°C° 0 mm 1 m/S 739 mmHg 100%
    21:00 +10°C° 0 mm 0 m/S 739 mmHg 100%
    22:00 +9°C° 0 mm 0 m/S 739 mmHg 100%
    23:00 +9°C° 0 mm 0 m/S 740 mmHg 100%

    26 Oktober, Samstag

    Zeit Temperatur Niederschläge Wind Luftdruck Luftfeuchtigkeit
    00:00 +10°C° 0 mm 1 m/S 740 mmHg 100%
    01:00 +10°C° 0 mm 1 m/S 739 mmHg 100%
    02:00 +9°C° 0 mm 0 m/S 739 mmHg 100%
    03:00 +9°C° 0 mm 0 m/S 739 mmHg 100%
    04:00 +10°C° 0 mm 1 m/S 739 mmHg 100%
    05:00 +10°C° 0 mm 1 m/S 739 mmHg 100%
    06:00 +11°C° 0 mm 1 m/S 739 mmHg 100%
    07:00 +11°C° 0 mm 1 m/S 739 mmHg 100%
    08:00 +10°C° 0 mm 2 m/S 739 mmHg 100%
    09:00 +10°C° 0 mm 2 m/S 739 mmHg 100%
    10:00 +10°C° 0 mm 2 m/S 739 mmHg 100%
    11:00 +10°C° 0 mm 2 m/S 739 mmHg 100%
    12:00 +10°C° 0 mm 2 m/S 739 mmHg 100%
    13:00 +10°C° 0 mm 2 m/S 738 mmHg 100%
    14:00 +10°C° 0 mm 2 m/S 738 mmHg 100%

    27 Oktober, Sonntag

    Zeit Temperatur Niederschläge Wind Luftdruck Luftfeuchtigkeit

    28 Oktober, Montag

    Zeit Temperatur Niederschläge Wind Luftdruck Luftfeuchtigkeit

    29 Oktober, Dienstag

    Zeit Temperatur Niederschläge Wind Luftdruck Luftfeuchtigkeit
    Mehr zeigen